Regional Weather Roundup
Issued by NWS Sioux Falls, SD

Home | Current Version | Previous Version | Text Only | Print | Product List | Glossary On
Versions: 1 2 3 4 5 6 7 8 9 10 11 12 13 14 15 16 17 18 19 20 21 22 23 24 25 26 27 28 29 30 31 32 33 34 35 36 37 38 39 40 41 42 43 44 45 46 47 48 49 50
153
ASUS43 KFSD 292310
RWRFSD

WEATHER ROUNDUP FOR SE SOUTH DAKOTA/SW MINNESOTA/NW IOWA
NATIONAL WEATHER SERVICE SIOUX FALLS SD
600 PM CDT WED MAR 29 2017

NOTE: "FAIR" INDICATES FEW OR NO CLOUDS BELOW 12,000 FEET WITH NO
SIGNIFICANT WEATHER AND OR OBSTRUCTIONS TO VISIBILITY.


SDZ038>040-050-052>070-300000-
SOUTHEAST SOUTH DAKOTA

CITY           SKY/WX    TMP DP  RH WIND       PRES   REMARKS
BROOKINGS      CLOUDY    44  36  73 E18G26    30.06F
CHAMBERLAIN    CLOUDY    52  36  54 E13G20    30.03S
HURON          CLOUDY    53  36  52 E15       30.04S
MADISON        MOCLDY    43  43 100 E17G25    30.06S
MITCHELL       CLOUDY    50  36  58 E21       30.04F
SIOUX FALLS    LGT RAIN  42  41  96 E16G23    30.04F
WINNER         CLOUDY    50  38  63 E16       30.02R
YANKTON        CLOUDY    41  37  87 NE21G29   30.00S
$$

MNZ071-072-080-081-089-090-097-098-300000-
SOUTHWEST MINNESOTA

CITY           SKY/WX    TMP DP  RH WIND       PRES   REMARKS
FAIRMONT       LGT RAIN  40  37  89 E23G30    30.07F
JACKSON        LGT RAIN  37  37 100 E21G29    30.06F
LUVERNE        LGT RAIN  39  36  87 E18G24    30.04F
MARSHALL       LGT RAIN  43  39  87 SE16G22   30.11F
MONTEVIDEO     CLOUDY    48  39  71 S16G23    30.14R
PIPESTONE      LGT RAIN  41  36  81 E15       30.06F
REDWOOD FALLS  LGT RAIN  44  40  85 E14G20    30.12F
TRACY          LGT RAIN  43  40  88 E15G21    30.11S
WINDOM         LGT RAIN  41  37  87 E13G18    30.08F
WORTHINGTON    LGT RAIN  39  36  89 E23       30.04F
$$

IAZ001>003-012>014-020>022-031-032-NEZ013-014-SDZ071-300000-
NORTHWEST IOWA

CITY           SKY/WX    TMP DP  RH WIND       PRES   REMARKS
CHEROKEE       LGT RAIN  39  38  97 E21G29    30.00R
DENISON        LGT RAIN  41  39  93 NE25G39   29.93F
ESTHERVILLE    RAIN      39  38  96 E22G32    30.05F FOG
LE MARS        CLOUDY    41  37  87 MISG      29.99S
ORANGE CITY    LGT RAIN  39  37  93 E18G28    29.99R
SHELDON        MIX PCPN  39  37  93 E23G38    29.99S
SIOUX CITY     LGT RAIN  42  40  92 E25G33    29.96R
SPENCER        LGT RAIN  40  37  89 E29G38    30.02F
STORM LAKE     CLOUDY    39  37  93 E26G35    29.98R
$$

ABBREVIATIONS USED IN REMARKS
   TC - TEMPERATURE IN CELSIUS
  WCI - WIND CHILL INDEX
   HX - HEAT INDEX
  VSB - VISIBILITY





USA.gov is the U.S. government's official web portal to all federal, state and local government web resources and services.